Weather History for Ramona, CA

Change the Weather History Date:

Saturday, February 16, 2013

  Actual Average Record
Temperature  
Mean Temperature 59 °F 51 °F  
Max Temperature 80 °F 65 °F 87 °F (1977)
Min Temperature 37 °F 37 °F 25 °F (1990)
Degree Days  
Heating Degree Days 6 14  
Month to date heating degree days 247 232  
Since 1 July heating degree days 1559 1579  
Cooling Degree Days 0 0  
Month to date cooling degree days 0 0  
Year to date cooling degree days 0 1  
Growing Degree Days 10 (Base 50)    
Moisture  
Dew Point 24 °F    
Average Humidity 31    
Maximum Humidity 54    
Minimum Humidity 8    
Precipitation  
Precipitation 0.00 in 0.13 in 1.10 in (2009)
Month to date precipitation 0.28 1.57  
Year to date precipitation 1.88 4.89  
Since 1 July precipitation 5.52 9.60  
Snow  
Snow 0.00 in - - ()
Month to date snowfall 0.0  
Year to date snowfall 0.0  
Since 1 July snowfall 0.0  
Snow Depth 0.00 in    
Sea Level Pressure  
Sea Level Pressure 30.07 in    
Wind  
Wind Speed 8 mph (ENE)    
Max Wind Speed 18 mph    
Max Gust Speed 23 mph    
Visibility 10 miles    
Events      
T = Trace of Precipitation, MM = Missing Value Source: NWS Daily Summary

Daily Weather History Graph

Daily Weather History Graph

Search for Another Location

Airport:

Trip Planner

Search our weather history database for the weather conditions in past years. The results will help you decide how hot, cold, wet, or windy it might be!

Date:

Astronomy

Feb. 16, 2013 Rise Set
Actual Time 6:29 AM PST 5:34 PM PST
Civil Twilight 6:04 AM PST 5:59 PM PST
Nautical Twilight 5:35 AM PST 6:28 PM PST
Astronomical Twilight 5:06 AM PST 6:57 PM PST
Moon 10:08 AM PST (2/16) No Moon Set
Length of Visible Light 11h 54m
Length of Day
11h 04m
Waxing Crescent, 40% of the Moon is Illuminated
Feb 16
Waxing Crescent
Feb 17
First Quarter
Feb 25
Full
Mar 4
Last Quarter
Mar 11
New

Hourly Weather History & Observations

Time (PST) Temp. Windchill Dew Point Humidity Pressure Visibility Wind Dir Wind Speed Gust Speed Precip Events Conditions
12:53 AM 44.1 °F 41.5 °F 21.9 °F 42% 30.14 in 10.0 mi ENE 4.6 mph - N/A   Clear
1:53 AM 44.1 °F 41.5 °F 23.0 °F 43% 30.12 in 10.0 mi East 4.6 mph - N/A   Clear
2:53 AM 39.9 °F 37.8 °F 23.0 °F 51% 30.12 in 10.0 mi East 3.5 mph - N/A   Clear
3:53 AM 41.0 °F - 23.0 °F 49% 30.12 in 10.0 mi Calm Calm - N/A   Clear
4:53 AM 45.0 °F 41.2 °F 21.9 °F 40% 30.12 in 10.0 mi East 6.9 mph - N/A   Clear
5:53 AM 39.9 °F - 24.1 °F 53% 30.14 in 10.0 mi Calm Calm - N/A   Clear
6:53 AM 44.1 °F - 23.0 °F 43% 30.14 in 10.0 mi Calm Calm - N/A   Clear
7:53 AM 66.0 °F - 19.0 °F 17% 30.13 in 10.0 mi ENE 10.4 mph - N/A   Clear
8:53 AM 68.0 °F - 17.1 °F 14% 30.13 in 10.0 mi East 11.5 mph - N/A   Clear
9:53 AM 73.9 °F - 16.0 °F 11% 30.12 in 10.0 mi ENE 15.0 mph 20.7 mph N/A   Clear
10:53 AM 77.0 °F - 18.0 °F 11% 30.11 in 10.0 mi East 15.0 mph 20.7 mph N/A   Clear
11:53 AM 77.0 °F - 17.1 °F 10% 30.08 in 10.0 mi ENE 13.8 mph - N/A   Clear
12:53 PM 79.0 °F - 15.1 °F 9% 30.04 in 10.0 mi ENE 6.9 mph - N/A   Clear
1:53 PM 80.1 °F - 12.0 °F 8% 30.01 in 10.0 mi ENE 9.2 mph - N/A   Clear
2:53 PM 73.9 °F - 30.9 °F 21% 30.01 in 10.0 mi West 13.8 mph - N/A   Clear
3:53 PM 73.0 °F - 30.0 °F 20% 30.00 in 10.0 mi West 11.5 mph - N/A   Clear
4:53 PM 68.0 °F - 28.0 °F 22% 30.00 in 10.0 mi WNW 9.2 mph - N/A   Clear
5:53 PM 55.0 °F - 28.9 °F 37% 30.02 in 10.0 mi Calm Calm - N/A   Clear
6:53 PM 52.0 °F - 27.0 °F 38% 30.03 in 10.0 mi NE 3.5 mph - N/A   Clear
7:53 PM 46.9 °F - 30.0 °F 52% 30.01 in 10.0 mi Calm Calm - N/A   Clear
8:53 PM 44.1 °F - 30.0 °F 58% 30.01 in 10.0 mi Calm Calm - N/A   Clear
9:53 PM 39.9 °F - 30.0 °F 68% 30.02 in 10.0 mi Calm Calm - N/A   Clear
10:53 PM 39.0 °F - 30.0 °F 70% 30.00 in 10.0 mi Calm Calm - N/A   Clear
11:53 PM 35.1 °F - 30.0 °F 82% 29.99 in 10.0 mi Calm Calm - N/A   Clear